0 IRIDIUM 7 1 24793U 97020B 25021.69055797 .00000760 00000-0 25636-3 0 9999 2 24793 86.3935 238.2542 0001737 92.5000 267.6395 14.35725053450878 0 IRIDIUM 5 1 24795U 97020D 25021.89974940 .00009182 00000-0 79887-3 0 9997 2 24795 86.3942 151.0653 0111884 303.2415 55.8128 14.92043024463633 0 IRIDIUM 4 1 24796U 97020E 25021.62710426 .00000675 00000-0 22287-3 0 9996 2 24796 86.3932 235.2531 0001873 85.7471 274.3940 14.36635069451454 0 IRIDIUM 914 1 24836U 97030A 25021.69012893 .00000927 00000-0 28470-3 0 9992 2 24836 86.3908 244.2739 0002308 41.3902 318.7472 14.40612566586031 0 IRIDIUM 16 1 24841U 97030F 25021.70935987 .00000904 00000-0 28971-3 0 9999 2 24841 86.4010 266.8195 0002668 138.4590 221.6811 14.38476703445949 0 IRIDIUM 911 1 24842U 97030G 25021.70144931 .00001210 00000-0 32502-3 0 9997 2 24842 86.4434 265.7433 0012614 220.8170 139.2090 14.47312355453893 0 IRIDIUM 17 1 24870U 97034B 25021.81502477 .00001106 00000-0 36254-3 0 9999 2 24870 86.3964 296.3359 0003444 105.2274 254.9305 14.37589270442556 0 IRIDIUM 920 1 24871U 97034C 25021.74778848 .00000969 00000-0 29348-3 0 9991 2 24871 86.3958 275.9149 0010586 195.7213 164.3660 14.41294879445488 0 IRIDIUM 921 1 24873U 97034E 25021.90050988 .00418282 00000-0 14947-2 0 9998 2 24873 86.3632 177.0536 0003560 318.8818 41.2193 15.87864085509178 0 IRIDIUM 26 1 24903U 97043A 25021.89164020 .00001131 00000-0 37564-3 0 9995 2 24903 86.4001 172.0212 0001869 97.8537 262.2872 14.36926165435731 0 IRIDIUM 22 1 24907U 97043E 25021.91079176 .00000989 00000-0 33550-3 0 9990 2 24907 86.4003 175.4216 0002030 92.2724 267.8705 14.35763479435783 0 IRIDIUM 29 1 24944U 97051A 25021.91417458 .00001069 00000-0 35981-3 0 9999 2 24944 86.3962 205.1801 0002099 84.9403 275.2033 14.36230562432276 0 IRIDIUM 33 1 24946U 97051C 25021.94783239 .00000708 00000-0 24331-3 0 9993 2 24946 86.3878 204.4155 0007588 180.8349 179.2835 14.34730792431776 0 IRIDIUM 28 1 24948U 97051E 25021.91276200 .00000958 00000-0 31577-3 0 9994 2 24948 86.3971 202.7811 0001878 102.8857 257.2551 14.37170798432833 0 IRIDIUM 36 1 24967U 97056C 25021.61894298 .00000944 00000-0 30970-3 0 9991 2 24967 86.3942 234.5211 0002139 92.6961 267.4481 14.37364896431166 0 IRIDIUM 39 1 25042U 97069D 25021.73306020 .00001433 00000-0 37289-3 0 9998 2 25042 86.3897 273.9327 0020124 76.7758 283.5689 14.48843583427752 0 IRIDIUM 38 1 25043U 97069E 25021.83238084 .00001120 00000-0 36509-3 0 9991 2 25043 86.3962 294.7580 0001556 141.7927 218.3381 14.37873009424922 0 IRIDIUM 42 1 25077U 97077A 25021.79911660 .00001069 00000-0 36050-3 0 9993 2 25077 86.3972 300.7629 0001567 96.6105 263.5270 14.36128244420186 0 IRIDIUM 44 1 25078U 97077B 25021.80050233 .00001038 00000-0 32368-3 0 9990 2 25078 86.3948 283.0648 0003359 114.3458 245.8092 14.39996722422638 0 IRIDIUM 45 1 25104U 97082A 25021.80475568 .00033317 00000-0 14091-2 0 9995 2 25104 86.3624 118.6055 0133370 157.0781 203.6490 15.15228820429828 0 IRIDIUM 24 1 25105U 97082B 25021.82221429 .00001328 00000-0 40030-3 0 9993 2 25105 86.3953 142.3661 0010983 191.9082 168.1860 14.41831267422121 0 IRIDIUM 51 1 25262U 98018A 25021.82029509 .00043185 00000-0 13227-2 0 9996 2 25262 86.3911 127.6198 0110138 88.3046 273.0812 15.27769438424593 0 IRIDIUM 57 1 25273U 98019B 25021.96001201 .00000793 00000-0 26792-3 0 9993 2 25273 86.3964 206.4622 0001986 92.1074 268.0350 14.35694970403803 0 IRIDIUM 63 1 25286U 98021B 25021.82403919 .00001171 00000-0 39391-3 0 9997 2 25286 86.4027 143.5155 0002066 89.8229 270.3205 14.36335822402831 0 IRIDIUM 69 1 25319U 98026A 25021.86666074 .00001666 00000-0 51566-3 0 9993 2 25319 86.4025 157.2111 0003835 122.8054 237.3515 14.40694477401991 0 IRIDIUM 71 1 25320U 98026B 25021.89414185 .00001275 00000-0 39158-3 0 9991 2 25320 86.4023 151.9232 0002193 154.8838 205.2469 14.40921262402524 0 IRIDIUM 73 1 25344U 98032C 25021.78081444 .00001494 00000-0 36989-3 0 9992 2 25344 86.4421 109.0134 0002700 103.1565 256.9942 14.51368509409320 0 IRIDIUM 82 1 25467U 98051A 25021.90145530 .00041113 00000-0 15107-2 0 9990 2 25467 86.3738 181.0907 0102841 128.4282 232.6251 15.22802951401629 0 IRIDIUM 106 1 41917U 17003A 25021.90155284 .00000191 00000-0 61076-4 0 9992 2 41917 86.3983 302.1841 0002325 91.4872 268.6591 14.34218780419923 0 IRIDIUM 103 1 41918U 17003B 25021.81909338 .00000748 00000-0 25989-3 0 9990 2 41918 86.3983 302.1196 0001578 95.5465 264.5910 14.34214195419936 0 IRIDIUM 109 1 41919U 17003C 25021.82544219 -.00000051 00000-0 -25292-4 0 9992 2 41919 86.3981 302.1679 0001844 78.9663 281.1740 14.34217257419907 0 IRIDIUM 102 1 41920U 17003D 25021.79372848 .00000742 00000-0 25803-3 0 9999 2 41920 86.3981 302.1155 0002178 83.4399 276.7044 14.34221288419980 0 IRIDIUM 105 1 41921U 17003E 25021.76446624 .00000122 00000-0 36637-4 0 9991 2 41921 86.3951 270.5471 0001980 88.2313 271.9109 14.34217789421833 0 IRIDIUM 104 1 41922U 17003F 25021.87618190 .00000107 00000-0 30988-4 0 9999 2 41922 86.3982 302.1158 0001652 76.8006 283.3374 14.34217375419985 0 IRIDIUM 114 1 41923U 17003G 25021.81273625 .00000398 00000-0 13523-3 0 9991 2 41923 86.3982 302.1277 0001938 89.3598 270.7820 14.34213543419956 0 IRIDIUM 108 1 41924U 17003H 25021.77127037 .00001201 00000-0 42176-3 0 9992 2 41924 86.3949 270.4550 0002270 87.8409 272.3046 14.34215655421806 0 IRIDIUM 112 1 41925U 17003J 25021.80007026 .00000343 00000-0 11528-3 0 9995 2 41925 86.3978 301.9983 0001963 77.9814 282.1601 14.34217623419975 0 IRIDIUM 111 1 41926U 17003K 25021.85715761 .00000760 00000-0 26429-3 0 9992 2 41926 86.3979 302.0336 0002089 87.1854 272.9581 14.34221480419967 0 IRIDIUM 113 1 42803U 17039A 25021.90688679 .00000369 00000-0 12465-3 0 9999 2 42803 86.4015 175.8353 0001496 88.3277 271.8090 14.34218035397906 0 IRIDIUM 123 1 42804U 17039B 25021.94836470 .00000030 00000-0 37325-5 0 9997 2 42804 86.3972 207.2475 0002042 97.4562 262.6866 14.34217574396678 0 IRIDIUM 120 1 42805U 17039C 25021.90054588 .00000206 00000-0 66607-4 0 9995 2 42805 86.4003 175.6870 0002268 98.7078 261.4375 14.34217609397894 0 IRIDIUM 115 1 42806U 17039D 25021.87295421 .00001122 00000-0 32737-3 0 9999 2 42806 86.4541 175.7556 0001959 107.2167 252.9249 14.43288632400518 0 IRIDIUM 118 1 42807U 17039E 25021.91030837 .00000240 00000-0 78626-4 0 9991 2 42807 86.3972 207.2637 0001959 90.4208 269.7212 14.34220794396667 0 IRIDIUM 117 1 42808U 17039F 25021.92933691 .00000018 00000-0 -71630-6 0 9997 2 42808 86.3977 207.2185 0001896 101.2889 258.8520 14.34217311396692 0 IRIDIUM 126 1 42809U 17039G 25021.88494337 .00000253 00000-0 83122-4 0 9999 2 42809 86.3973 207.2795 0001769 94.9151 265.2247 14.34219879396672 0 IRIDIUM 124 1 42810U 17039H 25021.87611846 .00001098 00000-0 32045-3 0 9991 2 42810 86.4536 144.1346 0002536 95.2976 264.8515 14.43291896401368 0 IRIDIUM 128 1 42811U 17039J 25021.66636225 .00000062 00000-0 15208-4 0 9990 2 42811 86.3943 238.8709 0002332 95.3857 264.7604 14.34215623396665 0 IRIDIUM 121 1 42812U 17039K 25021.90397892 .00000245 00000-0 80559-4 0 9996 2 42812 86.3974 207.2957 0002144 89.8645 270.2797 14.34220949396548 0 IRIDIUM 133 1 42955U 17061A 25021.62830919 .00000434 00000-0 14779-3 0 9990 2 42955 86.3949 238.9916 0002270 87.9224 272.2231 14.34218479381450 0 IRIDIUM 100 1 42956U 17061B 25021.69174256 .00000034 00000-0 51239-5 0 9993 2 42956 86.3943 238.8963 0002023 94.3571 265.7856 14.34218094381463 0 IRIDIUM 122 1 42957U 17061C 25021.66002812 .00000284 00000-0 94495-4 0 9996 2 42957 86.3944 238.9079 0001792 94.8636 265.2765 14.34219768381466 0 IRIDIUM 129 1 42958U 17061D 25021.68539714 .00000522 00000-0 17941-3 0 9990 2 42958 86.3944 238.9589 0001748 79.6980 280.4413 14.34217316381485 0 IRIDIUM 119 1 42959U 17061E 25021.65368783 -.00000007 00000-0 -94974-5 0 9997 2 42959 86.3948 238.9655 0001663 95.0976 265.0409 14.34217488381492 0 IRIDIUM 107 1 42960U 17061F 25021.67271913 -.00000166 00000-0 -66335-4 0 9994 2 42960 86.3948 238.9754 0001954 102.0402 258.1013 14.34209368381504 0 IRIDIUM 132 1 42961U 17061G 25021.67906171 .00000568 00000-0 19569-3 0 9996 2 42961 86.3944 238.9562 0002076 91.3016 268.8417 14.34217677381503 0 IRIDIUM 136 1 42962U 17061H 25021.64099788 .00000586 00000-0 20221-3 0 9998 2 42962 86.3945 238.9764 0001764 98.9535 261.1861 14.34221153381515 0 IRIDIUM 139 1 42963U 17061J 25021.71711272 .00000156 00000-0 48733-4 0 9998 2 42963 86.3946 238.9982 0002002 97.8313 262.3110 14.34218824381530 0 IRIDIUM 125 1 42964U 17061K 25021.70443816 .00000487 00000-0 16681-3 0 9997 2 42964 86.3949 239.0552 0001476 100.4042 259.7320 14.34211783381544 0 IRIDIUM 135 1 43070U 17083A 25021.88786061 .00000180 00000-0 57223-4 0 9999 2 43070 86.4007 175.7130 0002108 88.9607 271.1830 14.34217322370869 0 IRIDIUM 138 1 43071U 17083B 25021.91322232 .00000201 00000-0 64585-4 0 9993 2 43071 86.3996 175.3929 0001277 93.6994 266.4347 14.34221952370859 0 IRIDIUM 116 1 43072U 17083C 25021.88151918 -.00000221 00000-0 -85812-4 0 9991 2 43072 86.4008 175.7087 0002074 91.8793 268.2640 14.34217757370884 0 IRIDIUM 130 1 43073U 17083D 25021.91957289 .00000760 00000-0 26435-3 0 9992 2 43073 86.4016 175.9174 0002100 97.5672 262.5762 14.34219030370835 0 IRIDIUM 151 1 43074U 17083E 25021.89420259 .00000129 00000-0 39018-4 0 9993 2 43074 86.4010 175.7491 0002095 90.2608 269.8828 14.34218331370850 0 IRIDIUM 134 1 43075U 17083F 25021.93225609 .00000603 00000-0 20822-3 0 9990 2 43075 86.4013 175.7344 0002150 96.4751 263.6689 14.34220105370826 0 IRIDIUM 137 1 43076U 17083G 25021.87517643 .00000180 00000-0 57305-4 0 9993 2 43076 86.4012 175.8401 0002494 86.6251 273.5230 14.34217870370881 0 IRIDIUM 141 1 43077U 17083H 25021.86883109 .00000404 00000-0 13708-3 0 9993 2 43077 86.4008 175.7029 0001645 97.0720 263.0663 14.34219278370884 0 IRIDIUM 153 1 43078U 17083J 25021.82100812 .00000345 00000-0 11604-3 0 9990 2 43078 86.4013 144.2507 0001339 100.2885 259.8461 14.34216800371981 0 IRIDIUM 131 1 43079U 17083K 25021.92590721 .00000768 00000-0 26723-3 0 9991 2 43079 86.4013 175.8306 0001912 89.5717 270.5698 14.34223916370829 0 IRIDIUM 144 1 43249U 18030A 25021.82735342 .00000062 00000-0 15220-4 0 9990 2 43249 86.4012 144.1891 0002112 100.3370 259.8064 14.34218286356842 0 IRIDIUM 149 1 43250U 18030B 25021.83369669 .00000205 00000-0 66114-4 0 9995 2 43250 86.4011 144.1592 0002191 94.2506 265.8940 14.34218086356860 0 IRIDIUM 157 1 43251U 18030C 25021.85272381 -.00000008 00000-0 -98876-5 0 9996 2 43251 86.4015 144.1932 0001849 90.0297 270.1111 14.34217718356841 0 IRIDIUM 140 1 43252U 18030D 25021.94151910 .00000653 00000-0 22612-3 0 9998 2 43252 86.4010 144.1699 0002059 100.2521 259.8907 14.34218575356912 0 IRIDIUM 145 1 43253U 18030E 25021.92883619 .00000084 00000-0 23030-4 0 9999 2 43253 86.4010 144.1483 0002421 99.0474 261.0996 14.34218219356849 0 IRIDIUM 146 1 43254U 18030F 25021.90980788 .00000017 00000-0 -11690-5 0 9990 2 43254 86.4012 144.1704 0002285 103.1088 257.0363 14.34217804356857 0 IRIDIUM 148 1 43255U 18030G 25021.87809487 .00000089 00000-0 24776-4 0 9999 2 43255 86.4014 144.2189 0002267 94.7233 265.4222 14.34218084356886 0 IRIDIUM 142 1 43256U 18030H 25021.84638293 -.00000040 00000-0 -21526-4 0 9991 2 43256 86.4014 144.1400 0002440 97.3375 262.8099 14.34217282356849 0 IRIDIUM 150 1 43257U 18030J 25021.88443768 -.00000064 00000-0 -30011-4 0 9992 2 43257 86.4016 144.2237 0002179 101.0898 259.0543 14.34217397356875 0 IRIDIUM 143 1 43258U 18030K 25021.79564186 .00000196 00000-0 62949-4 0 9990 2 43258 86.4017 144.3331 0002412 103.7206 256.4258 14.34217795356792 0 IRIDIUM 161 1 43478U 18047C 25021.85408486 .00001042 00000-0 30365-3 0 9996 2 43478 86.4502 302.1483 0002169 80.3195 279.8251 14.43287271351381 0 IRIDIUM 152 1 43479U 18047D 25021.83810472 .00000755 00000-0 26233-3 0 9996 2 43479 86.3977 302.0146 0002059 84.9779 275.1652 14.34227517349195 0 IRIDIUM 147 1 43480U 18047E 25021.84446994 -.00000078 00000-0 -35003-4 0 9999 2 43480 86.3978 302.0078 0001899 73.7511 286.3893 14.34212751349198 0 IRIDIUM 110 1 43481U 18047F 25021.85081099 .00000814 00000-0 28345-3 0 9998 2 43481 86.3982 302.0839 0001685 81.1838 278.9548 14.34218536349187 0 IRIDIUM 162 1 43482U 18047G 25021.84774492 .00001035 00000-0 30154-3 0 9991 2 43482 86.4501 302.0480 0001938 86.4711 273.6711 14.43292414351372 0 IRIDIUM 160 1 43569U 18061A 25021.79664563 .00000604 00000-0 20877-3 0 9996 2 43569 86.3951 270.4638 0001910 79.2267 280.9144 14.34219563340075 0 IRIDIUM 166 1 43570U 18061B 25021.75224945 .00000353 00000-0 11905-3 0 9993 2 43570 86.3947 270.4394 0002311 91.4903 268.6558 14.34217084340090 0 IRIDIUM 158 1 43571U 18061C 25021.72053688 .00000148 00000-0 45784-4 0 9990 2 43571 86.3948 270.4627 0001880 93.1265 267.0145 14.34217236340051 0 IRIDIUM 165 1 43572U 18061D 25021.74590799 -.00000133 00000-0 -54531-4 0 9998 2 43572 86.3954 270.4886 0002024 82.2512 277.8913 14.34217359340082 0 IRIDIUM 155 1 43573U 18061E 25021.77761450 .00000032 00000-0 45261-5 0 9993 2 43573 86.3949 270.3699 0002076 93.2640 266.8793 14.34215773340058 0 IRIDIUM 154 1 43574U 18061F 25021.75859212 -.00000048 00000-0 -24257-4 0 9996 2 43574 86.3956 270.4856 0001962 84.9321 275.2098 14.34218622340103 0 IRIDIUM 163 1 43575U 18061G 25021.73956518 .00000022 00000-0 66139-6 0 9999 2 43575 86.3951 270.4253 0001809 84.6858 275.4544 14.34217560340076 0 IRIDIUM 156 1 43576U 18061H 25021.71419358 .00000243 00000-0 79812-4 0 9999 2 43576 86.3950 270.4426 0002148 95.4313 264.7128 14.34216979340062 0 IRIDIUM 164 1 43577U 18061J 25021.76493354 .00000640 00000-0 22155-3 0 9991 2 43577 86.3951 270.4536 0002198 79.7111 280.4332 14.34217929340116 0 IRIDIUM 159 1 43578U 18061K 25021.73322116 .00000598 00000-0 20638-3 0 9992 2 43578 86.3948 270.4148 0002093 79.9067 280.2365 14.34220968340074 0 IRIDIUM 180 1 43922U 19002A 25021.94203606 .00000232 00000-0 75650-4 0 9996 2 43922 86.3973 207.2147 0001908 92.7776 267.3639 14.34219498315715 0 IRIDIUM 176 1 43923U 19002B 25021.90597022 .00000884 00000-0 13625-3 0 9997 2 43923 86.6100 207.2341 0001473 59.3468 300.7894 14.72248379324022 0 IRIDIUM 168 1 43924U 19002C 25021.93568061 -.00000093 00000-0 -40157-4 0 9997 2 43924 86.3979 207.2801 0001837 86.2606 273.8800 14.34217485315694 0 IRIDIUM 173 1 43925U 19002D 25021.92299611 -.00000063 00000-0 -29610-4 0 9997 2 43925 86.3977 207.1955 0001823 93.4934 266.6470 14.34217600315671 0 IRIDIUM 169 1 43926U 19002E 25021.66955305 .00000734 00000-0 23334-3 0 9997 2 43926 86.4200 238.9055 0001619 141.8720 218.2593 14.38618676316682 0 IRIDIUM 172 1 43927U 19002F 25021.91665265 .00000043 00000-0 83255-5 0 9992 2 43927 86.3972 207.2043 0001946 87.6062 272.5356 14.34217642315686 0 IRIDIUM 175 1 43928U 19002G 25021.90058661 .00002990 00000-0 46997-3 0 9991 2 43928 86.1541 168.0854 0002890 114.3041 245.8478 14.72260652324011 0 IRIDIUM 171 1 43929U 19002H 25021.89762412 .00000076 00000-0 20244-4 0 9997 2 43929 86.3980 207.4617 0002436 91.4395 268.7079 14.34217509315673 0 IRIDIUM 170 1 43930U 19002J 25021.91213569 .00000880 00000-0 13561-3 0 9992 2 43930 86.6099 207.2368 0001990 91.9669 268.1776 14.72249447324039 0 IRIDIUM 167 1 43931U 19002K 25021.96105199 .00000059 00000-0 13942-4 0 9999 2 43931 86.3972 207.2037 0002292 99.6452 260.5002 14.34218000315689 0 IRIDIUM 181 1 56726U 23068S 25021.80219505 .00000837 00000-0 24280-3 0 9992 2 56726 86.4488 270.3981 0002689 87.1422 273.0087 14.43313512 88678 0 IRIDIUM 177 1 56727U 23068T 25021.91650017 .00001194 00000-0 15371-3 0 9990 2 56727 86.1967 211.4964 0001861 86.6349 273.5085 14.80218038 90739 0 IRIDIUM 174 1 56728U 23068U 25021.91099249 .00001170 00000-0 15040-3 0 9992 2 56728 86.1973 211.6202 0002407 83.4012 276.7483 14.80236138 90731 0 IRIDIUM 178 1 56729U 23068V 25021.70276388 .00002961 00000-0 38602-3 0 9999 2 56729 86.5754 239.5169 0002940 77.4677 282.6873 14.80246135 90700 0 IRIDIUM 179 1 56730U 23068W 25021.76489537 .00002865 00000-0 37344-3 0 9994 2 56730 86.6761 246.3762 0002322 86.4867 273.6620 14.80256719 90711